TimeMST,TemperatureF,Dew PointF,Humidity,Sea Level PressureIn,VisibilityMPH,Wind Direction,Wind SpeedMPH,Gust SpeedMPH,PrecipitationIn,Events,Conditions,WindDirDegrees,DateUTC
12:57 AM,35.1,18.0,50,30.00,10.0,Calm,Calm,-,N/A,,Clear,0,2013-05-21 07:57:00
1:57 AM,34.0,18.0,52,29.99,10.0,Calm,Calm,-,N/A,,Clear,0,2013-05-21 08:57:00
2:57 AM,33.1,19.0,56,29.99,10.0,Calm,Calm,-,N/A,,Clear,0,2013-05-21 09:57:00
3:57 AM,30.9,19.0,61,30.00,10.0,Calm,Calm,-,N/A,,Clear,0,2013-05-21 10:57:00
4:57 AM,30.0,19.0,64,29.99,10.0,Calm,Calm,-,N/A,,Clear,0,2013-05-21 11:57:00
5:57 AM,32.0,21.0,64,30.00,10.0,Calm,Calm,-,N/A,,Clear,0,2013-05-21 12:57:00
6:57 AM,46.9,25.0,42,29.95,10.0,Calm,Calm,-,N/A,,Clear,0,2013-05-21 13:57:00
7:57 AM,57.0,23.0,27,29.94,10.0,ESE,5.8,-,N/A,,Clear,110,2013-05-21 14:57:00
8:57 AM,60.1,21.9,23,29.96,10.0,Variable,3.5,16.1,N/A,,Clear,0,2013-05-21 15:57:00
9:57 AM,63.0,23.0,22,29.95,10.0,SW,10.4,18.4,N/A,,Clear,220,2013-05-21 16:57:00
10:57 AM,66.0,24.1,20,29.94,10.0,SSW,15.0,20.7,N/A,,Clear,210,2013-05-21 17:57:00
11:57 AM,70.0,23.0,17,29.93,10.0,SW,15.0,23.0,N/A,,Clear,220,2013-05-21 18:57:00
12:57 PM,71.1,21.9,16,29.92,10.0,SSW,24.2,28.8,N/A,,Clear,210,2013-05-21 19:57:00
1:57 PM,70.0,16.0,13,29.93,10.0,WSW,11.5,26.5,N/A,,Clear,250,2013-05-21 20:57:00
2:57 PM,72.0,15.1,11,29.90,10.0,SW,18.4,25.3,N/A,,Clear,220,2013-05-21 21:57:00
3:57 PM,71.1,14.0,11,29.88,10.0,SSW,17.3,25.3,N/A,,Clear,210,2013-05-21 22:57:00
4:57 PM,71.1,16.0,12,29.87,10.0,WSW,13.8,25.3,N/A,,Clear,250,2013-05-21 23:57:00
5:57 PM,68.0,15.1,13,29.87,10.0,WSW,11.5,19.6,N/A,,Clear,250,2013-05-22 00:57:00
6:57 PM,64.9,18.0,16,29.82,10.0,SW,9.2,-,N/A,,Clear,220,2013-05-22 01:57:00
7:57 PM,62.1,16.0,17,29.80,10.0,WSW,5.8,-,N/A,,Clear,240,2013-05-22 02:57:00
8:57 PM,53.1,17.1,24,29.83,10.0,Calm,Calm,-,N/A,,Clear,0,2013-05-22 03:57:00
9:57 PM,51.1,17.1,26,29.83,10.0,Calm,Calm,-,N/A,,Clear,0,2013-05-22 04:57:00
10:57 PM,43.0,16.0,34,29.84,10.0,Calm,Calm,-,N/A,,Clear,0,2013-05-22 05:57:00
11:57 PM,43.0,15.1,32,29.83,10.0,South,3.5,-,N/A,,Clear,190,2013-05-22 06:57:00